EBBREBCV

Guest
Details From EBBR - Brussels Airport
To EBCV - Chievres AB
Flight Number -
Tags generated
Created
Modified
Stats Distance 32 nm / 59 km
Max Altitude 0 ft / 0 m
Waypoints 3
Social Downloads 0
Likes 0
Share VATSIM

Download

Looking for another format? Having issues loading an existing format? Contact us
Advertisement - Login to hide

Notes

Basic altitude profile: - Ascent Rate: 2500ft/min - Ascent Speed: 250kts - Cruise Altitude: 35000ft - Cruise Speed: 420kts - Descent Rate: 1500ft/min - Descent Speed: 250kts

Route

EBBR CIV EBCV

ID Type Via Altitude Latitude Longitude Leg Dist Tot Dist Heading (true) Name
O EBBR APT - 0 ft / 0 m 50.89995˚ 4.49281˚ - 0 nm - Brussels Airport
CIV VOR - 0 ft / 0 m 50.57389˚ 3.83278˚ 31 nm 31 nm 232° / 232° CHIEVRES VOR
O EBCV APT - 0 ft / 0 m 50.57584˚ 3.83108˚ 0 nm 31 nm 331° / 331° Chievres AB

Altitude Profile

Advertisement - Login to hide

EBBR

Details ICAO EBBR (BRU)
Name Brussels Airport
Region Belgium
Timezone Europe/Brussels (UTC+2.0)
Stats Elevation 184 ft / 56 m (AMSL)
Location 50.899948° 4.492814°
Runways 3
Magnetic Variation 1.183° E

METAR

EBBR 232320Z 27003KT CAVOK 16/15 Q1020 NOSIG

Decode

TAF

TAF TAF EBBR 231700Z 2318/2424 03008KT 8000 SCT040 PROB30 TEMPO 2318/2321 VRB15G25KT 3500 SHRA TSRAGS PROB30 TEMPO 2401/2406 3500 BR PROB40 TEMPO 2412/2421 VRB18G28KT 2500 SHRA TSRAGR

Decode

Departure Runways

ID Width Length Bearing (true) Bearing (mag) Surface Threshold Offset Overrun Length
02 164 ft / 50 m 9,896 ft / 3,016 m 14.41° 13.23° Asphalt 249 ft / 76 m 0 ft / 0 m
07L 148 ft / 45 m 12,106 ft / 3,690 m 65.16° 63.98° Asphalt 801 ft / 244 m 0 ft / 0 m
07R 148 ft / 45 m 10,703 ft / 3,262 m 69.90° 68.72° Asphalt 499 ft / 152 m 0 ft / 0 m
20 164 ft / 50 m 9,896 ft / 3,016 m 194.42° 193.24° Asphalt 751 ft / 229 m 0 ft / 0 m
25L 148 ft / 45 m 10,703 ft / 3,262 m 249.93° 248.75° Asphalt 499 ft / 152 m 0 ft / 0 m
25R 148 ft / 45 m 12,106 ft / 3,690 m 245.20° 244.02° Asphalt 801 ft / 244 m 0 ft / 0 m

EBCV

Details ICAO EBCV
Name Chievres AB
Region Belgium
Timezone Europe/Brussels (UTC+2.0)
Stats Elevation 201 ft / 61 m (AMSL)
Location 50.575840° 3.831076°
Runways 1
Magnetic Variation 0.995° E

METAR

EBCV 232325Z AUTO VRB02KT 9999 -RA OVC091/// 15/14 Q1020 BLU

Decode

TAF

Not found

Destination Runways

ID Width Length Bearing (true) Bearing (mag) Surface Threshold Offset Overrun Length
08 164 ft / 50 m 6,288 ft / 1,917 m 79.82° 78.82° Asphalt 0 ft / 0 m 0 ft / 0 m
26 164 ft / 50 m 6,288 ft / 1,917 m 259.84° 258.84° Asphalt 0 ft / 0 m 0 ft / 0 m

Approach Navaids

Runway Type Ident Frequency Range Bearing (true) Bearing (mag) Slope Elevation
26 Localiser ICV 108.55 MHz 18 nm / 33 km 260.20° 259.20° - 201 ft / 61 m (AMSL)

Popular Alternatives